Location: Allen Fire Department Station 4
(33.1073°N, 96.6988°W)
Time: 10:07:29
(UTC+00:00)

NOAA 6 - Pass Details

Date: 03 December 2021
Orbit: 772 x 786 km, 98.7° (Epoch: 24 January)

Event Time Altitude Azimuth Distance (km) Brightness Sun altitude
Rises 12:40:53 0° 13° (NNE) 3,252 7.2 -7.2°
Reaches altitude 10° 12:43:12 10° 14° (NNE) 2,321 6.4 -6.7°
Maximum altitude 12:48:19 84° 103° (ESE) 781 4.2 -5.7°
Drops below altitude 10° 12:53:26 10° 192° (SSW) 2,311 6.7 -4.7°
Sets 12:55:44 0° 193° (SSW) 3,236 7.4 -4.3°
